Hourly Data Report for July 09, 2006

TORONTO CITY
ONTARIO

43°40'00.000" N
79°24'00.000" W
112.50 m
6158355
71508
XTO

Download Data

Hourly Data (July 2006)
Hourly Data Report for July 9, 2006
TIME
LST
Temp Definition
°C
Dew Point Definition
°C
Rel Hum Definition
%
Precip. Amount Definition
mm

Wind Dir Definition
10's deg

Wind Spd Definition
km/h
Visibility Definition
km
Stn Press Definition
kPa
Hmdx Definition


Wind Chill Definition


Weather Definition


00:00 19.3 15.2 77   LegendMM LegendMM   100.26     LegendNANA
01:00 18.6 15.4 82   LegendMM LegendMM   100.22     LegendNANA
02:00 18.6 13.9 74   LegendMM LegendMM   100.17     LegendNANA
03:00 18.6 12.8 69   LegendMM LegendMM   100.13     LegendNANA
04:00 17.5 12.8 74   LegendMM LegendMM   100.10     LegendNANA
05:00 17.1 13.4 79   LegendMM LegendMM   100.12     LegendNANA
06:00 17.8 14.1 79   LegendMM LegendMM   100.12     LegendNANA
07:00 19.8 15.3 75   LegendMM LegendMM   100.12     LegendNANA
08:00 22.2 16.6 71   LegendMM LegendMM   100.08 27   LegendNANA
09:00 22.7 17.4 72   LegendMM LegendMM   100.07 28   LegendNANA
10:00 24.0 18.4 71   LegendMM LegendMM   100.04 30   LegendNANA
11:00 25.8 18.4 64   LegendMM LegendMM   100.00 32   LegendNANA
12:00 26.7 17.0 55   LegendMM LegendMM   99.96 32   LegendNANA
13:00 26.5 16.2 53   LegendMM LegendMM   99.92 31   LegendNANA
14:00 27.7 15.3 47   LegendMM LegendMM   99.88 32   LegendNANA
15:00 25.4 15.2 53   LegendMM LegendMM   99.85 29   LegendNANA
16:00 24.6 15.2 56   LegendMM LegendMM   99.83 29   LegendNANA
17:00 24.5 15.7 58   LegendMM LegendMM   99.81 29   LegendNANA
18:00 24.0 15.9 61   LegendMM LegendMM   99.77 29   LegendNANA
19:00 23.3 15.3 61   LegendMM LegendMM   99.79 27   LegendNANA
20:00 22.9 14.3 58   LegendMM LegendMM   99.78 26   LegendNANA
21:00 22.3 14.6 62   LegendMM LegendMM   99.77 26   LegendNANA
22:00 21.5 14.9 66   LegendMM LegendMM   99.79 25   LegendNANA
23:00 21.6 15.2 67   LegendMM LegendMM   99.76 26   LegendNANA

Notes on Data Quality.

Legend

  • E = Estimated
  • M = Missing
  • NA = Not Available*
  • [empty] = Indicates an unobserved value
Date modified: